Kelso, MO

8:46 PM CST on January 19, 2017 (GMT -0600)
Cape Girardeau Regional

Weather History for KCGI - March, 2011

Change the Weather History Date:

Saturday, March 26, 2011

  Actual Average Record
Temperature  
Mean Temperature 39 °F 50 °F  
Max Temperature 42 °F 62 °F 82 °F (2007)
Min Temperature 35 °F 39 °F 20 °F (2014)
Degree Days  
Heating Degree Days 26 15  
Month to date heating degree days 399 489  
Since 1 July heating degree days 3905 3986  
Cooling Degree Days 0 0  
Month to date cooling degree days 3 0  
Year to date cooling degree days 3 0  
Moisture  
Dew Point 35 °F    
Average Humidity 84    
Maximum Humidity 92    
Minimum Humidity 76    
Precipitation  
Precipitation 0.64 in 0.16 in 1.35 in (1994)
Month to date precipitation 4.44 3.62  
Year to date precipitation 10.14 10.50  
Sea Level Pressure  
Sea Level Pressure 29.90 in    
Wind  
Wind Speed 15 mph (NE)    
Max Wind Speed 25 mph    
Max Gust Speed 32 mph    
Visibility 5 miles    
Events Rain    
T = Trace of Precipitation, MM = Missing Value Source: NWS Daily Summary

Daily Weather History Graph

Daily Weather History Graph

Search for Another Location

Airport or City:

Trip Planner

Search our weather history database for the weather conditions in past years. The results will help you decide how hot, cold, wet, or windy it might be!

Date:

Astronomy

Mar. 26, 2011 Rise Set
Actual Time 6:53 AM CDT 7:15 PM CDT
Civil Twilight 6:27 AM CDT 7:41 PM CDT
Nautical Twilight 5:56 AM CDT 8:12 PM CDT
Astronomical Twilight 5:25 AM CDT 8:43 PM CDT
Moon 2:12 AM CDT (3/26) 12:04 PM CDT (3/26)
Length of Visible Light 13h 14m
Length of Day
12h 22m
Waning Gibbous, 48% of the Moon is Illuminated
Mar 26
Waning Gibbous
Apr 3
New
Apr 11
First Quarter
Apr 17
Full
Apr 24
Last Quarter

Hourly Weather History & Observations

Time (CDT) Temp. Windchill Dew Point Humidity Pressure Visibility Wind Dir Wind Speed Gust Speed Precip Events Conditions
12:48 AM 39.2 °F 32.0 °F 37.4 °F 93% 29.97 in 5.0 mi NE 11.5 mph - N/A   Overcast
12:53 AM 39.9 °F 32.5 °F 37.0 °F 89% 29.98 in 5.0 mi NE 12.7 mph - N/A   Overcast
1:53 AM 39.9 °F 32.5 °F 37.0 °F 89% 29.96 in 5.0 mi NE 12.7 mph - N/A   Overcast
2:53 AM 41.0 °F 34.3 °F 36.0 °F 82% 29.95 in 5.0 mi ENE 11.5 mph - N/A   Haze
3:35 AM 39.2 °F 33.0 °F 35.6 °F 87% 29.93 in 5.0 mi ENE 9.2 mph - N/A   Overcast
3:53 AM 41.0 °F 35.2 °F 36.0 °F 82% 29.95 in 5.0 mi ENE 9.2 mph - N/A   Haze
4:53 AM 39.9 °F 32.1 °F 36.0 °F 86% 29.93 in 5.0 mi NE 13.8 mph - N/A   Overcast
5:53 AM 41.0 °F 34.7 °F 36.0 °F 82% 29.92 in 6.0 mi NE 10.4 mph - N/A   Haze
6:53 AM 39.9 °F 32.5 °F 35.1 °F 83% 29.91 in 5.0 mi NE 12.7 mph - N/A   Haze
7:32 AM 39.2 °F 32.5 °F 35.6 °F 87% 29.89 in 4.0 mi NE 10.4 mph - N/A   Haze
7:53 AM 41.0 °F 35.2 °F 36.0 °F 82% 29.91 in 4.0 mi ENE 9.2 mph - N/A   Haze
8:53 AM 42.1 °F 34.2 °F 35.1 °F 76% 29.86 in 5.0 mi ENE 16.1 mph 23.0 mph N/A   Haze
9:53 AM 42.1 °F 36.6 °F 35.1 °F 76% 29.91 in 6.0 mi NE 9.2 mph - N/A   Haze
10:06 AM 42.8 °F 36.2 °F 35.6 °F 76% 29.92 in 6.0 mi NE 12.7 mph - N/A   Haze
10:53 AM 42.1 °F 34.5 °F 35.1 °F 76% 29.90 in 5.0 mi NE 15.0 mph - 0.00 in Rain Light Rain
11:00 AM 42.8 °F 35.4 °F 35.6 °F 76% 29.90 in 4.0 mi NE 15.0 mph - 0.01 in Rain Light Rain
11:40 AM 41.0 °F 34.3 °F 35.6 °F 81% 29.85 in 2.5 mi NE 11.5 mph - 0.13 in Rain Rain
11:53 AM 39.9 °F 32.5 °F 36.0 °F 86% 29.85 in 2.0 mi NE 12.7 mph - 0.19 in Rain Heavy Rain
12:07 PM 39.2 °F 33.0 °F 35.6 °F 87% 29.87 in 2.5 mi ENE 9.2 mph - 0.05 in Rain Rain
12:18 PM 39.2 °F 33.0 °F 35.6 °F 87% 29.88 in 2.5 mi ENE 9.2 mph - 0.10 in Rain Heavy Rain
12:26 PM 39.2 °F 33.6 °F 35.6 °F 87% 29.90 in 2.0 mi NNE 8.1 mph - 0.14 in Rain Heavy Rain
12:53 PM 39.9 °F 32.1 °F 36.0 °F 86% 29.88 in 2.0 mi NNE 13.8 mph - 0.25 in Rain Rain
1:40 PM 39.2 °F 31.2 °F 35.6 °F 87% 29.87 in 2.5 mi NNE 13.8 mph - 0.14 in Rain Rain
1:53 PM 39.9 °F 32.1 °F 36.0 °F 86% 29.88 in 3.0 mi NNE 13.8 mph 24.2 mph 0.16 in Rain Light Rain
2:10 PM 39.2 °F 30.8 °F 35.6 °F 87% 29.86 in 2.5 mi NE 15.0 mph - 0.02 in Rain Rain
2:25 PM 39.2 °F 30.5 °F 37.4 °F 93% 29.85 in 3.0 mi NE 16.1 mph - 0.03 in Rain Light Rain
2:53 PM 39.9 °F 30.8 °F 37.0 °F 89% 29.81 in 4.0 mi NE 18.4 mph - 0.03 in   Overcast
3:53 PM 42.1 °F 33.6 °F 37.0 °F 82% 29.78 in 4.0 mi NE 18.4 mph 24.2 mph N/A   Haze
4:53 PM 42.1 °F 33.6 °F 37.0 °F 82% 29.81 in 5.0 mi NE 18.4 mph 23.0 mph N/A   Haze
5:33 PM 41.0 °F 33.9 °F 35.6 °F 81% 29.83 in 5.0 mi NNE 12.7 mph - N/A   Haze
5:53 PM 39.9 °F 32.1 °F 35.1 °F 83% 29.84 in 5.0 mi NNE 13.8 mph - N/A   Haze
6:53 PM 39.0 °F 29.3 °F 34.0 °F 82% 29.89 in 6.0 mi NNE 19.6 mph 24.2 mph N/A   Haze
7:53 PM 37.0 °F 28.1 °F 33.1 °F 86% 29.89 in 6.0 mi NNE 15.0 mph - 0.00 in   Overcast
8:53 PM 36.0 °F 27.1 °F 33.1 °F 89% 29.92 in 4.0 mi NNE 13.8 mph - 0.00 in   Overcast
9:53 PM 36.0 °F 24.7 °F 32.0 °F 86% 29.93 in 10.0 mi NNE 21.9 mph 27.6 mph 0.00 in   Overcast
10:53 PM 35.1 °F 24.5 °F 30.9 °F 85% 29.94 in 10.0 mi NNE 18.4 mph 25.3 mph 0.00 in   Overcast
11:31 PM 35.6 °F 25.9 °F 30.2 °F 81% 29.94 in 10.0 mi NNE 16.1 mph 25.3 mph 0.01 in   Overcast
11:53 PM 35.1 °F 25.9 °F 30.9 °F 85% 29.95 in 10.0 mi NNE 13.8 mph 24.2 mph 0.01 in   Overcast